Total_Precipitation_Accumulation
0.11 0.13 0.16 0.17 0.14 0.06 0.02 0.01 0.01 0.02 0.02 0.02 0.03 0.04 0.04 0.05 0.05 0.10 0.09 0.09 0.08 0.09 0.16 0.30 0.36 0.42 0.43 0.41 0.35 0.31 0.34 0.41 0.46 0.52 0.59 0.60 0.60 0.59 0.59 0.57 0.53 0.55 0.51 0.54 0.46 0.36 0.30 0.27 0.25
0.15 0.22 0.28 0.30 0.15 0.05 0.02 0.01 0.01 0.02 0.02 0.02 0.03 0.05 0.09 0.13 0.09 0.08 0.11 0.14 0.12 0.12 0.18 0.28 0.40 0.46 0.46 0.44 0.42 0.36 0.37 0.43 0.48 0.53 0.59 0.61 0.62 0.64 0.61 0.58 0.54 0.55 0.49 0.48 0.39 0.31 0.26 0.21 0.19
0.26 0.37 0.44 0.32 0.14 0.04 0.01 0.01 0.01 0.01 0.02 0.03 0.06 0.08 0.17 0.26 0.17 0.13 0.13 0.17 0.18 0.19 0.24 0.38 0.49 0.54 0.54 0.50 0.50 0.47 0.44 0.48 0.53 0.60 0.65 0.66 0.69 0.69 0.64 0.57 0.51 0.46 0.43 0.41 0.35 0.26 0.21 0.17 0.14
0.41 0.61 0.55 0.33 0.13 0.05 0.01 0.01 0.01 0.02 0.04 0.04 0.07 0.15 0.23 0.27 0.27 0.23 0.19 0.23 0.27 0.31 0.38 0.51 0.61 0.69 0.66 0.61 0.57 0.55 0.54 0.54 0.56 0.62 0.66 0.68 0.72 0.74 0.67 0.60 0.48 0.37 0.35 0.35 0.31 0.24 0.20 0.17 0.15
0.64 0.76 0.56 0.31 0.11 0.05 0.02 0.02 0.01 0.03 0.04 0.06 0.09 0.19 0.30 0.30 0.35 0.40 0.35 0.37 0.43 0.50 0.60 0.67 0.78 0.85 0.84 0.78 0.69 0.63 0.62 0.60 0.61 0.66 0.68 0.72 0.72 0.74 0.74 0.65 0.48 0.36 0.33 0.35 0.32 0.27 0.23 0.21 0.18
1.01 0.84 0.56 0.29 0.09 0.03 0.02 0.02 0.02 0.03 0.05 0.08 0.12 0.25 0.37 0.41 0.52 0.66 0.66 0.62 0.65 0.76 0.88 0.91 1.02 0.99 0.96 0.88 0.83 0.73 0.71 0.69 0.70 0.75 0.74 0.77 0.77 0.75 0.75 0.67 0.54 0.41 0.35 0.37 0.34 0.30 0.26 0.24 0.20
1.07 0.84 0.51 0.24 0.09 0.04 0.03 0.03 0.03 0.03 0.05 0.09 0.12 0.32 0.42 0.53 0.70 0.91 1.03 1.01 1.02 1.15 1.26 1.20 1.18 1.06 1.07 1.01 0.89 0.84 0.78 0.79 0.80 0.82 0.77 0.76 0.75 0.75 0.73 0.65 0.56 0.48 0.42 0.43 0.42 0.35 0.31 0.27 0.23
1.05 1.05 0.54 0.26 0.13 0.06 0.05 0.06 0.06 0.06 0.07 0.10 0.17 0.32 0.42 0.55 0.82 1.15 1.37 1.50 1.46 1.51 1.67 1.61 1.44 1.28 1.17 1.12 0.99 0.92 0.88 0.85 0.81 0.74 0.63 0.59 0.65 0.71 0.66 0.53 0.50 0.47 0.42 0.43 0.43 0.40 0.35 0.29 0.25
1.17 1.24 0.63 0.26 0.16 0.09 0.09 0.11 0.09 0.09 0.12 0.18 0.23 0.28 0.41 0.64 1.00 1.41 1.70 1.88 1.85 1.82 1.92 1.99 1.83 1.56 1.37 1.24 1.06 1.04 1.00 0.91 0.85 0.71 0.57 0.52 0.56 0.60 0.53 0.42 0.42 0.46 0.43 0.41 0.40 0.38 0.36 0.30 0.23
1.27 1.02 0.46 0.20 0.18 0.18 0.19 0.18 0.16 0.18 0.23 0.28 0.36 0.40 0.58 0.85 1.18 1.48 1.75 1.85 1.86 1.88 1.97 2.14 2.03 1.85 1.67 1.43 1.18 1.18 1.14 0.96 0.82 0.69 0.62 0.56 0.54 0.58 0.51 0.44 0.41 0.46 0.43 0.40 0.44 0.43 0.40 0.34 0.25
0.89 0.56 0.31 0.25 0.27 0.31 0.30 0.23 0.23 0.28 0.25 0.23 0.30 0.47 0.74 1.02 1.32 1.52 1.68 1.89 1.88 1.98 2.14 2.26 2.28 2.02 1.90 1.75 1.41 1.22 1.20 1.12 0.99 0.82 0.72 0.68 0.67 0.66 0.65 0.55 0.49 0.48 0.40 0.35 0.36 0.40 0.34 0.29 0.26
0.59 0.36 0.35 0.37 0.35 0.42 0.42 0.33 0.31 0.33 0.30 0.25 0.32 0.52 0.78 1.03 1.28 1.54 1.59 1.84 2.02 2.13 2.19 2.30 2.46 2.28 2.00 1.84 1.67 1.48 1.33 1.24 1.14 0.98 0.88 0.86 0.79 0.68 0.63 0.57 0.50 0.52 0.45 0.38 0.35 0.32 0.29 0.29 0.29
0.48 0.37 0.36 0.45 0.50 0.50 0.52 0.49 0.42 0.35 0.36 0.39 0.50 0.69 0.88 1.09 1.34 1.59 1.65 1.73 1.97 2.14 2.26 2.34 2.43 2.46 2.23 2.02 1.84 1.66 1.50 1.37 1.38 1.31 1.14 1.02 0.93 0.78 0.67 0.61 0.61 0.62 0.57 0.52 0.46 0.39 0.35 0.34 0.34
0.46 0.42 0.43 0.52 0.58 0.57 0.64 0.63 0.60 0.45 0.46 0.61 0.69 0.77 0.96 1.16 1.40 1.63 1.71 1.74 1.80 2.03 2.22 2.34 2.43 2.55 2.51 2.21 2.05 1.87 1.63 1.44 1.48 1.48 1.34 1.26 1.15 1.06 0.92 0.82 0.76 0.73 0.70 0.67 0.61 0.53 0.49 0.44 0.41
0.49 0.59 0.62 0.61 0.66 0.67 0.75 0.82 0.64 0.49 0.54 0.68 0.71 0.78 0.96 1.14 1.33 1.56 1.73 1.85 1.85 2.01 2.22 2.23 2.33 2.53 2.60 2.46 2.28 2.08 1.90 1.63 1.53 1.47 1.39 1.39 1.30 1.21 1.14 1.05 1.02 0.97 0.92 0.84 0.80 0.74 0.69 0.60 0.52
0.69 0.76 0.73 0.59 0.64 0.74 0.90 0.81 0.54 0.54 0.60 0.69 0.68 0.77 0.91 1.10 1.23 1.40 1.68 1.97 2.06 2.11 2.28 2.30 2.30 2.46 2.53 2.55 2.55 2.41 2.26 2.01 1.74 1.61 1.54 1.49 1.46 1.37 1.27 1.18 1.08 1.03 1.07 1.07 0.98 0.88 0.81 0.70 0.60
0.90 0.76 0.57 0.55 0.56 0.70 0.82 0.72 0.58 0.56 0.61 0.60 0.63 0.69 0.82 1.02 1.20 1.32 1.50 1.75 1.94 2.06 2.24 2.38 2.36 2.48 2.57 2.58 2.61 2.59 2.42 2.30 2.10 1.78 1.57 1.52 1.56 1.55 1.48 1.33 1.25 1.23 1.10 1.06 1.07 0.98 0.85 0.79 0.75
0.64 0.56 0.46 0.48 0.52 0.58 0.64 0.56 0.57 0.57 0.59 0.56 0.58 0.60 0.66 0.87 1.13 1.19 1.33 1.60 1.84 1.99 2.16 2.33 2.37 2.45 2.71 2.79 2.75 2.73 2.48 2.25 2.23 2.02 1.74 1.59 1.61 1.66 1.61 1.47 1.41 1.46 1.35 1.16 1.03 1.01 0.96 0.85 0.84
0.39 0.41 0.41 0.36 0.40 0.48 0.50 0.49 0.53 0.56 0.57 0.62 0.64 0.60 0.59 0.72 1.00 1.13 1.20 1.48 1.74 1.91 2.10 2.24 2.32 2.37 2.58 2.72 2.70 2.62 2.47 2.24 2.13 2.09 1.95 1.81 1.73 1.77 1.77 1.63 1.53 1.52 1.44 1.29 1.18 1.08 1.06 1.03 0.99
0.47 0.46 0.46 0.39 0.36 0.47 0.48 0.46 0.44 0.43 0.53 0.64 0.64 0.65 0.66 0.70 0.87 1.00 1.06 1.20 1.42 1.65 1.89 2.15 2.26 2.34 2.32 2.36 2.56 2.69 2.77 2.58 2.30 2.12 2.02 1.91 1.82 1.81 1.79 1.75 1.68 1.61 1.57 1.50 1.44 1.37 1.28 1.23 1.23
0.51 0.43 0.38 0.39 0.40 0.47 0.46 0.47 0.39 0.40 0.47 0.54 0.59 0.62 0.61 0.61 0.71 0.82 0.92 1.13 1.26 1.41 1.66 1.98 2.16 2.30 2.30 2.30 2.54 2.75 2.88 2.71 2.39 2.04 1.88 1.89 1.90 1.91 1.83 1.81 1.82 1.75 1.65 1.55 1.50 1.45 1.40 1.34 1.32
0.50 0.30 0.28 0.32 0.47 0.55 0.48 0.64 0.43 0.42 0.45 0.48 0.54 0.55 0.54 0.55 0.60 0.66 0.79 0.95 1.08 1.25 1.44 1.62 1.84 2.03 2.22 2.29 2.33 2.36 2.43 2.41 2.17 2.05 1.96 1.97 1.97 1.97 1.92 1.87 1.87 1.83 1.74 1.59 1.54 1.48 1.39 1.36 1.33
0.42 0.28 0.32 0.34 0.45 0.52 0.39 0.58 0.48 0.33 0.37 0.47 0.55 0.57 0.56 0.58 0.62 0.62 0.75 0.91 0.98 1.11 1.36 1.50 1.58 1.78 2.02 2.16 2.21 2.31 2.25 2.25 2.29 2.24 2.16 2.07 2.02 1.98 1.91 1.86 1.85 1.77 1.69 1.66 1.67 1.60 1.54 1.45 1.38
0.45 0.44 0.48 0.47 0.63 0.67 0.32 0.45 0.47 0.33 0.37 0.42 0.44 0.51 0.56 0.61 0.69 0.74 0.83 0.91 0.95 1.03 1.22 1.44 1.45 1.54 1.70 1.94 2.15 2.20 2.10 2.09 2.12 2.09 2.04 2.03 2.03 2.00 1.91 1.81 1.76 1.72 1.69 1.67 1.69 1.73 1.68 1.62 1.54
0.55 0.69 0.98 1.01 0.92 0.51 0.23 0.34 0.44 0.32 0.33 0.36 0.38 0.43 0.50 0.59 0.65 0.74 0.82 0.83 0.87 0.95 1.08 1.26 1.35 1.43 1.51 1.67 1.86 2.03 2.08 2.05 2.04 2.03 1.98 1.90 1.82 1.74 1.73 1.75 1.69 1.64 1.59 1.60 1.63 1.68 1.68 1.64 1.60
0.51 0.53 0.69 0.68 0.42 0.27 0.22 0.32 0.36 0.31 0.27 0.25 0.26 0.33 0.42 0.49 0.52 0.57 0.68 0.76 0.84 0.90 0.94 1.00 1.06 1.13 1.21 1.28 1.42 1.59 1.80 1.88 1.82 1.83 1.81 1.77 1.69 1.66 1.66 1.66 1.66 1.66 1.63 1.59 1.60 1.61 1.61 1.61 1.55
0.54 0.47 0.33 0.54 0.42 0.36 0.26 0.25 0.27 0.25 0.24 0.23 0.25 0.31 0.39 0.47 0.52 0.53 0.61 0.66 0.73 0.81 0.88 0.87 0.89 0.94 1.03 1.05 1.13 1.22 1.41 1.56 1.59 1.63 1.59 1.50 1.48 1.54 1.55 1.54 1.54 1.57 1.58 1.56 1.57 1.56 1.53 1.54 1.51
0.38 0.37 0.47 0.79 0.66 0.47 0.26 0.23 0.36 0.29 0.23 0.24 0.29 0.32 0.40 0.50 0.50 0.49 0.55 0.59 0.63 0.70 0.77 0.78 0.80 0.83 0.95 0.99 1.02 1.05 1.13 1.23 1.37 1.47 1.38 1.32 1.32 1.34 1.37 1.36 1.36 1.38 1.41 1.41 1.44 1.42 1.39 1.37 1.33
0.28 0.38 0.45 0.55 0.50 0.49 0.30 0.31 0.37 0.33 0.27 0.27 0.30 0.36 0.45 0.49 0.50 0.52 0.56 0.59 0.63 0.69 0.70 0.68 0.76 0.81 0.90 0.94 0.91 0.90 0.95 1.01 1.07 1.15 1.18 1.14 1.17 1.16 1.15 1.15 1.17 1.16 1.19 1.23 1.26 1.23 1.22 1.26 1.25
0.24 0.26 0.35 0.61 0.45 0.34 0.33 0.36 0.31 0.27 0.26 0.26 0.29 0.35 0.42 0.43 0.47 0.50 0.51 0.55 0.61 0.65 0.62 0.59 0.66 0.73 0.84 0.87 0.81 0.80 0.85 0.90 0.93 0.95 0.99 0.99 1.01 1.03 1.04 1.05 1.05 1.01 0.99 1.03 1.07 1.09 1.09 1.12 1.13